This is the latest recevied weather packets stored in our database for station/object K0QED. If no packets are shown the sender has not sent any weather packets the latest 10 day(s).
| Time | Temp. | Humidity | Pressure | Rain* | Wind** | Luminosity | Snow |
|---|---|---|---|---|---|---|---|
| 1777555810 | 0° C | 99% | 1022 hPa | 0 mm | - | 29 W/m² | - |
| 1777555506 | 0° C | 99% | 1021.9 hPa | 0 mm | - | 26 W/m² | - |
| 1777555202 | 0° C | 99% | 1021.7 hPa | 0 mm | - | 22 W/m² | - |
| 1777554900 | 0° C | 99% | 1021.7 hPa | 0 mm | - | 18 W/m² | - |
| 1777554596 | 0° C | 99% | 1021.7 hPa | 0 mm | - | 12 W/m² | - |
| 1777554294 | 0° C | 99% | 1021.7 hPa | 0 mm | - | 11 W/m² | - |
| 1777553990 | 0° C | 99% | 1021.7 hPa | 0 mm | - | 10 W/m² | - |
| 1777553687 | 0° C | 99% | 1021.6 hPa | 0 mm | - | 10 W/m² | - |
| 1777553384 | 0° C | 99% | 1021.5 hPa | 0 mm | - | 9 W/m² | - |
| 1777553080 | 0° C | 99% | 1021.5 hPa | 0 mm | - | 7 W/m² | - |
| 1777552780 | 0° C | 99% | 1021.6 hPa | 0 mm | - | 6 W/m² | - |
| 1777552475 | 0° C | 99% | 1021.4 hPa | 0 mm | - | 5 W/m² | - |
| 1777552172 | 0° C | 99% | 1021.1 hPa | 0 mm | - | 3 W/m² | - |
| 1777551869 | 0° C | 99% | 1021.6 hPa | 0 mm | - | 3 W/m² | - |
| 1777551567 | 0° C | 99% | 1021.4 hPa | 0 mm | - | 2 W/m² | - |
| 1777551264 | 0° C | 99% | 1021.4 hPa | 0 mm | - | 1 W/m² | - |
| 1777550960 | 0° C | 99% | 1021.1 hPa | 0 mm | - | 0 W/m² | - |
| 1777550657 | 0° C | 99% | 1021.2 hPa | 0 mm | - | 0 W/m² | - |
| 1777550353 | 0° C | 99% | 1021.4 hPa | 0 mm | - | 0 W/m² | - |
| 1777550049 | 0° C | 99% | 1021.4 hPa | 0 mm | - | 0 W/m² | - |
| 1777549746 | 0° C | 99% | 1021.5 hPa | 0 mm | - | 0 W/m² | - |
| 1777549441 | 0° C | 99% | 1021.5 hPa | 0 mm | - | 0 W/m² | - |
| 1777549138 | 0° C | 99% | 1021.4 hPa | 0 mm | - | 0 W/m² | - |
| 1777548834 | 0° C | 99% | 1021.2 hPa | 0 mm | - | 0 W/m² | - |
| 1777548532 | 0° C | 99% | 1021.5 hPa | 0 mm | - | 0 W/m² | - |
* Rain latest hour (hover to see other rain measurements)
** Current wind speed in m/s (hover to see current wind gust speed)